Location: Overspoor
(51.4747°N, 5.6641°E)
Time: 11:05:46
(UTC+01:00)

Tiangong 2 - Visible Passes

Search period start: 23 January 2019 00:00
Search period end: 02 February 2019 00:00
Orbit: 380 x 392 km, 42.8° (Epoch: 23 January)

Date Brightness Start Highest point End Pass type
(mag) Time Alt. Az. Time Alt. Az. Time Alt. Az.
23 Jan 3.4 06:08:42 17° S 06:08:42 17° S 06:10:32 10° SE visible
23 Jan 3.8 07:43:27 10° SW 07:44:21 11° SSW 07:45:13 10° S visible
24 Jan 3.5 06:44:40 12° SSW 06:45:35 14° SSW 06:47:18 10° SSE visible
25 Jan 4.0 05:48:22 12° SSE 05:48:22 12° SSE 05:48:52 10° SSE visible
26 Jan 3.8 06:24:22 10° SSW 06:24:22 10° SSW 06:24:46 10° S visible
